This is the latest recevied weather packets stored in our database for station/object EA5DFV. If no packets are shown the sender has not sent any weather packets the latest 10 day(s).
| Time | Temp. | Humidity | Pressure | Rain* | Wind** | Luminosity | Snow |
|---|---|---|---|---|---|---|---|
| 1777990700 | 21.67° C | 73% | 1009.3 hPa | 0 mm | - | 181 W/m² | - |
| 1777990416 | 21.67° C | 74% | 1009.4 hPa | 0 mm | - | 253 W/m² | - |
| 1777989817 | 21.11° C | 77% | 1009.4 hPa | 0 mm | - | 339 W/m² | - |
| 1777989507 | 21.11° C | 77% | 1009.5 hPa | 0 mm | - | 257 W/m² | - |
| 1777989202 | 21.11° C | 78% | 1009.5 hPa | 0 mm | - | 912 W/m² | - |
| 1777988913 | 20.56° C | 79% | 1009.6 hPa | 1.02 mm | - | 879 W/m² | - |
| 1777988603 | 20° C | 80% | 1009.8 hPa | 1.02 mm | - | 891 W/m² | - |
| 1777988314 | 20° C | 81% | 1009.9 hPa | 1.02 mm | - | 914 W/m² | - |
| 1777988003 | 19.44° C | 82% | 1009.9 hPa | 1.02 mm | - | 258 W/m² | - |
| 1777987714 | 18.89° C | 81% | 1010 hPa | 1.02 mm | - | 223 W/m² | - |
| 1777987407 | 19.44° C | 81% | 1010 hPa | 3.05 mm | - | 213 W/m² | - |
| 1777987117 | 18.89° C | 81% | 1010.1 hPa | 3.05 mm | - | 186 W/m² | - |
| 1777986814 | 19.44° C | 82% | 1010 hPa | 7.11 mm | - | 239 W/m² | - |
| 1777986507 | 18.89° C | 82% | 1010.1 hPa | 8.89 mm | - | 863 W/m² | - |
| 1777986203 | 18.89° C | 82% | 1010.1 hPa | 8.89 mm | - | 211 W/m² | - |
| 1777985914 | 18.89° C | 83% | 1010.2 hPa | 8.89 mm | - | 250 W/m² | - |
| 1777985605 | 18.89° C | 82% | 1010.2 hPa | 8.89 mm | - | 214 W/m² | - |
| 1777985315 | 18.89° C | 82% | 1010.3 hPa | 7.87 mm | - | 192 W/m² | - |
| 1777985009 | 18.89° C | 82% | 1010.4 hPa | 7.87 mm | - | 232 W/m² | - |
| 1777984702 | 18.89° C | 81% | 1010.5 hPa | 7.87 mm | - | 195 W/m² | - |
| 1777984417 | 18.89° C | 81% | 1010.6 hPa | 7.87 mm | - | 186 W/m² | - |
| 1777984108 | 19.44° C | 80% | 1010.5 hPa | 7.87 mm | - | 123 W/m² | - |
| 1777983798 | 20° C | 79% | 1010.5 hPa | 6.1 mm | - | 144 W/m² | - |
| 1777983512 | 20.56° C | 76% | 1010.5 hPa | 6.1 mm | - | 167 W/m² | - |
| 1777983202 | 21.11° C | 75% | 1010.6 hPa | 2.03 mm | - | 174 W/m² | - |
* Rain latest hour (hover to see other rain measurements)
** Current wind speed in m/s (hover to see current wind gust speed)